Jackson, MN

2:51 PM CST on December 06, 2019 (GMT -0600)
Jackson Municipal

Weather History for KMJQ - November, 2019

Change the Weather History Date:

Thursday, November 14, 2019

  Actual Average Record
Temperature  
Mean Temperature 26 °F -  
Max Temperature 33 °F 41 °F 66 °F (2001)
Min Temperature 19 °F 25 °F 3 °F (2014)
Degree Days  
Heating Degree Days 39    
Moisture  
Dew Point 20 °F    
Average Humidity 77    
Maximum Humidity 87    
Minimum Humidity 60    
Precipitation  
Precipitation 0.00 in - - ()
Sea Level Pressure  
Sea Level Pressure 30.22 in    
Wind  
Wind Speed 10 mph ()    
Max Wind Speed 16 mph    
Max Gust Speed 25 mph    
Visibility 10.0 miles    
Events      
Averages and records for this station are not official NWS values.
T = Trace of Precipitation, MM = Missing Value Source: Averaged Metar Reports

Daily Weather History Graph

Daily Weather History Graph

Search for Another Location

Airport or City:

Astronomy

Nov. 14, 2019 Rise Set
Actual Time 7:12 AM CST 4:55 PM CST
Civil Twilight 6:41 AM CST 5:26 PM CST
Nautical Twilight 6:06 AM CST 6:01 PM CST
Astronomical Twilight 5:33 AM CST 6:35 PM CST
Moon 6:39 PM CST (11/14) 9:11 AM CST (11/14)
Length of Visible Light 10h 45m
Length of Day
9h 43m
Waning Gibbous, 95% of the Moon is Illuminated
Nov 14
Waning Gibbous
Nov 19
Last Quarter
Nov 26
New
Dec 4
First Quarter
Dec 11
Full

Hourly Weather History & Observations

Time (CST) Temp. Windchill Dew Point Humidity Pressure Visibility Wind Dir Wind Speed Gust Speed Precip Events Conditions
12:15 AM 23.0 °F 13.9 °F 19.4 °F 86% 30.12 in 10.0 mi NNW 8.1 mph - N/A   Overcast
12:16 AM 23.0 °F 13.9 °F 19.4 °F 86% 30.12 in 10.0 mi NNW 8.1 mph - N/A   Overcast
12:35 AM 23.0 °F 13.9 °F 19.4 °F 86% 30.13 in 10.0 mi NNW 8.1 mph - N/A   Overcast
12:55 AM 23.0 °F 11.7 °F 17.6 °F 80% 30.13 in 10.0 mi NNW 11.5 mph - N/A   Overcast
1:15 AM 23.0 °F 10.1 °F 17.6 °F 80% 30.13 in 10.0 mi NNW 15.0 mph 24.2 mph N/A   Overcast
1:35 AM 23.0 °F 12.4 °F 17.6 °F 80% 30.14 in 10.0 mi NNW 10.4 mph 20.7 mph N/A   Overcast
1:55 AM 23.0 °F 10.6 °F 15.8 °F 74% 30.14 in 10.0 mi NNW 13.8 mph 25.3 mph N/A   Overcast
2:15 AM 21.2 °F 7.3 °F 15.8 °F 80% 30.15 in 10.0 mi NNW 16.1 mph - N/A   Overcast
2:35 AM 21.2 °F 8.3 °F 15.8 °F 80% 30.15 in 10.0 mi NNW 13.8 mph 20.7 mph N/A   Overcast
2:55 AM 21.2 °F 7.3 °F 14.0 °F 74% 30.16 in 10.0 mi NNW 16.1 mph 21.9 mph N/A   Overcast
3:15 AM 21.2 °F 8.9 °F 15.8 °F 80% 30.16 in 10.0 mi NNW 12.7 mph 18.4 mph N/A   Overcast
3:35 AM 21.2 °F 10.9 °F 15.8 °F 80% 30.17 in 10.0 mi NNW 9.2 mph 20.7 mph N/A   Overcast
3:55 AM 21.2 °F 9.5 °F 14.0 °F 74% 30.18 in 10.0 mi NNW 11.5 mph 18.4 mph N/A   Overcast
3:56 AM 21.2 °F 8.9 °F 15.8 °F 80% 30.18 in 10.0 mi NNW 12.7 mph 18.4 mph N/A   Overcast
4:15 AM 19.4 °F 7.9 °F 14.0 °F 80% 30.18 in 10.0 mi North 10.4 mph 21.9 mph N/A   Overcast
4:16 AM 19.4 °F 7.9 °F 14.0 °F 80% 30.18 in 10.0 mi North 10.4 mph - N/A   Overcast
4:35 AM 19.4 °F 9.5 °F 14.0 °F 80% 30.19 in 10.0 mi North 8.1 mph - N/A   Overcast
4:55 AM 21.2 °F 7.8 °F 15.8 °F 80% 30.20 in 10.0 mi NW 15.0 mph 18.4 mph N/A   Overcast
4:56 AM 19.4 °F 7.2 °F 14.0 °F 80% 30.20 in 10.0 mi NW 11.5 mph 18.4 mph N/A   Overcast
5:15 AM 19.4 °F 7.9 °F 14.0 °F 80% 30.20 in 10.0 mi NW 10.4 mph - N/A   Overcast
5:35 AM 19.4 °F 8.6 °F 14.0 °F 80% 30.21 in 10.0 mi NNW 9.2 mph - N/A   Overcast
5:36 AM 19.4 °F 7.9 °F 14.0 °F 80% 30.21 in 10.0 mi NW 10.4 mph - N/A   Overcast
5:55 AM 19.4 °F 8.6 °F 15.8 °F 86% 30.21 in 10.0 mi NNW 9.2 mph - N/A   Overcast
5:56 AM 19.4 °F 8.6 °F 15.8 °F 86% 30.21 in 10.0 mi NNW 9.2 mph - N/A   Overcast
6:15 AM 19.4 °F 11.5 °F 15.8 °F 86% 30.22 in 10.0 mi North 5.8 mph - N/A   Overcast
6:35 AM 19.4 °F 8.6 °F 14.0 °F 80% 30.23 in 10.0 mi NW 9.2 mph - N/A   Overcast
6:36 AM 19.4 °F 8.6 °F 14.0 °F 80% 30.23 in 10.0 mi NW 9.2 mph - N/A   Overcast
6:55 AM 19.4 °F 8.6 °F 14.0 °F 80% 30.24 in 10.0 mi NW 9.2 mph - N/A   Overcast
7:15 AM 19.4 °F 6.0 °F 14.0 °F 80% 30.23 in 10.0 mi NW 13.8 mph - N/A   Overcast
7:35 AM 19.4 °F 6.0 °F 14.0 °F 80% 30.24 in 10.0 mi NW 13.8 mph - N/A   Overcast
7:55 AM 19.4 °F 8.6 °F 14.0 °F 80% 30.24 in 10.0 mi NW 9.2 mph - N/A   Overcast
7:56 AM 19.4 °F 8.6 °F 14.0 °F 80% 30.24 in 10.0 mi NW 9.2 mph - N/A   Overcast
8:15 AM 19.4 °F 9.5 °F 15.8 °F 86% 30.27 in 10.0 mi WNW 8.1 mph - N/A   Overcast
8:35 AM 19.4 °F 7.9 °F 15.8 °F 86% 30.27 in 10.0 mi West 10.4 mph - N/A   Overcast
8:36 AM 19.4 °F 7.2 °F 15.8 °F 86% 30.27 in 10.0 mi WNW 11.5 mph - N/A   Overcast
8:55 AM 19.4 °F 7.2 °F 15.8 °F 86% 30.27 in 10.0 mi NW 11.5 mph - N/A   Overcast
9:15 AM 19.4 °F 10.4 °F 15.8 °F 86% 30.26 in 10.0 mi West 6.9 mph - N/A   Overcast
9:35 AM 21.2 °F 13.6 °F 17.6 °F 86% 30.27 in 10.0 mi West 5.8 mph - N/A   Overcast
9:55 AM 21.2 °F 10.9 °F 17.6 °F 86% 30.27 in 10.0 mi WSW 9.2 mph - N/A   Overcast
10:15 AM 21.2 °F 12.6 °F 17.6 °F 86% 30.28 in 10.0 mi West 6.9 mph - N/A   Overcast
10:16 AM 21.2 °F 12.6 °F 17.6 °F 86% 30.28 in 10.0 mi West 6.9 mph - N/A   Mostly Cloudy
10:35 AM 23.0 °F 13.1 °F 17.6 °F 80% 30.28 in 10.0 mi West 9.2 mph - N/A   Scattered Clouds
10:55 AM 24.8 °F 16.1 °F 17.6 °F 74% 30.28 in 10.0 mi West 8.1 mph - N/A   Scattered Clouds
10:56 AM 24.8 °F 15.3 °F 17.6 °F 74% 30.28 in 10.0 mi West 9.2 mph - N/A   Scattered Clouds
11:15 AM 26.6 °F 16.8 °F 17.6 °F 69% 30.27 in 10.0 mi WSW 10.4 mph - N/A   Clear
11:35 AM 26.6 °F 17.5 °F 17.6 °F 69% 30.26 in 10.0 mi West 9.2 mph - N/A   Clear
11:36 AM 26.6 °F 16.8 °F 17.6 °F 69% 30.26 in 10.0 mi WSW 10.4 mph - N/A   Clear
12:15 PM 28.4 °F 19.1 °F 19.4 °F 69% 30.25 in 10.0 mi WSW 10.4 mph - N/A   Clear
12:35 PM 30.2 °F 19.8 °F 19.4 °F 64% 30.25 in 10.0 mi WSW 13.8 mph - N/A   Clear
12:55 PM 30.2 °F 20.8 °F 19.4 °F 64% 30.25 in 10.0 mi West 11.5 mph 18.4 mph N/A   Clear
1:15 PM 32.0 °F 22.1 °F 19.4 °F 60% 30.25 in 10.0 mi West 13.8 mph - N/A   Clear
1:16 PM 32.0 °F 22.1 °F 19.4 °F 60% 30.25 in 10.0 mi West 13.8 mph - N/A   Clear
1:35 PM 32.0 °F 23.6 °F 21.2 °F 64% 30.23 in 10.0 mi WSW 10.4 mph - N/A   Clear
1:36 PM 32.0 °F 23.0 °F 21.2 °F 64% 30.23 in 10.0 mi WSW 11.5 mph - N/A   Clear
1:55 PM 32.0 °F 23.0 °F 21.2 °F 64% 30.23 in 10.0 mi West 11.5 mph - N/A   Clear
1:56 PM 32.0 °F 22.5 °F 21.2 °F 64% 30.23 in 10.0 mi WSW 12.7 mph - N/A   Clear
2:15 PM 32.0 °F 22.5 °F 21.2 °F 64% 30.23 in 10.0 mi West 12.7 mph 17.3 mph N/A   Clear
2:35 PM 33.8 °F 24.3 °F 21.2 °F 60% 30.23 in 10.0 mi West 13.8 mph - N/A   Clear
2:55 PM 33.8 °F 25.8 °F 23.0 °F 65% 30.23 in 10.0 mi West 10.4 mph - N/A   Clear
3:15 PM 33.8 °F 25.8 °F 23.0 °F 65% 30.22 in 10.0 mi WSW 10.4 mph - N/A   Clear
3:35 PM 33.8 °F 27.0 °F 23.0 °F 65% 30.22 in 10.0 mi WSW 8.1 mph - N/A   Clear
3:36 PM 33.8 °F 25.8 °F 24.8 °F 70% 30.22 in 10.0 mi WSW 10.4 mph - N/A   Clear
3:55 PM 33.8 °F 25.8 °F 26.6 °F 75% 30.22 in 10.0 mi WSW 10.4 mph - N/A   Clear
4:15 PM 33.8 °F 26.4 °F 26.6 °F 75% 30.22 in 10.0 mi WSW 9.2 mph - N/A   Clear
4:35 PM 33.8 °F 25.8 °F 26.6 °F 75% 30.22 in 10.0 mi SW 10.4 mph - N/A   Scattered Clouds
4:55 PM 33.8 °F 25.8 °F 26.6 °F 75% 30.21 in 10.0 mi SW 10.4 mph - N/A   Scattered Clouds
4:56 PM 33.8 °F 26.4 °F 26.6 °F 75% 30.21 in 10.0 mi SW 9.2 mph - N/A   Scattered Clouds
5:15 PM 32.0 °F 23.6 °F 26.6 °F 80% 30.22 in 10.0 mi SW 10.4 mph - N/A   Clear
5:16 PM 32.0 °F 23.6 °F 26.6 °F 80% 30.22 in 10.0 mi SW 10.4 mph - N/A   Clear
5:35 PM 32.0 °F 23.0 °F 26.6 °F 80% 30.21 in 10.0 mi SW 11.5 mph - N/A   Mostly Cloudy
5:36 PM 32.0 °F 23.0 °F 26.6 °F 80% 30.21 in 10.0 mi SW 11.5 mph - N/A   Mostly Cloudy
5:55 PM 32.0 °F 22.1 °F 26.6 °F 80% 30.22 in 10.0 mi SW 13.8 mph - N/A   Scattered Clouds
5:56 PM 32.0 °F 22.1 °F 26.6 °F 80% 30.22 in 10.0 mi SW 13.8 mph - N/A   Scattered Clouds
6:15 PM 32.0 °F 23.0 °F 24.8 °F 75% 30.22 in 10.0 mi SW 11.5 mph 16.1 mph N/A   Clear
6:16 PM 32.0 °F 23.0 °F 24.8 °F 75% 30.22 in 10.0 mi SW 11.5 mph - N/A   Clear
6:35 PM 32.0 °F 23.6 °F 24.8 °F 75% 30.22 in 10.0 mi SW 10.4 mph - N/A   Scattered Clouds
6:55 PM 32.0 °F 23.0 °F 24.8 °F 75% 30.22 in 10.0 mi SW 11.5 mph 16.1 mph N/A   Clear
7:15 PM 32.0 °F 23.0 °F 24.8 °F 75% 30.22 in 10.0 mi SW 11.5 mph - N/A   Clear
7:35 PM 32.0 °F 23.0 °F 24.8 °F 75% 30.22 in 10.0 mi SW 11.5 mph - N/A   Clear
7:36 PM 32.0 °F 23.0 °F 24.8 °F 75% 30.22 in 10.0 mi SW 11.5 mph 16.1 mph N/A   Scattered Clouds
7:55 PM 32.0 °F 23.0 °F 24.8 °F 75% 30.22 in 10.0 mi SW 11.5 mph - N/A   Scattered Clouds
8:15 PM 32.0 °F 23.6 °F 24.8 °F 75% 30.22 in 10.0 mi WSW 10.4 mph - N/A   Scattered Clouds
8:35 PM 32.0 °F 23.0 °F 24.8 °F 75% 30.22 in 10.0 mi WSW 11.5 mph - N/A   Scattered Clouds
8:36 PM 32.0 °F 22.5 °F 24.8 °F 75% 30.22 in 10.0 mi WSW 12.7 mph - N/A   Scattered Clouds
8:55 PM 32.0 °F 23.0 °F 24.8 °F 75% 30.22 in 10.0 mi WSW 11.5 mph - N/A   Scattered Clouds
8:56 PM 32.0 °F 23.0 °F 24.8 °F 75% 30.22 in 10.0 mi WSW 11.5 mph - N/A   Clear
9:15 PM 32.0 °F 22.5 °F 26.6 °F 80% 30.22 in 10.0 mi WSW 12.7 mph - N/A   Scattered Clouds
9:16 PM 32.0 °F 22.5 °F 26.6 °F 80% 30.22 in 10.0 mi WSW 12.7 mph - N/A   Scattered Clouds
9:35 PM 32.0 °F 22.1 °F 26.6 °F 80% 30.22 in 10.0 mi WSW 13.8 mph - N/A   Scattered Clouds
9:55 PM 32.0 °F 22.5 °F 26.6 °F 80% 30.23 in 10.0 mi WSW 12.7 mph - N/A   Scattered Clouds
10:15 PM 32.0 °F 23.0 °F 26.6 °F 80% 30.23 in 10.0 mi WSW 11.5 mph - N/A   Scattered Clouds
10:35 PM 32.0 °F 22.5 °F 28.4 °F 87% 30.23 in 10.0 mi WSW 12.7 mph - N/A   Scattered Clouds
10:55 PM 32.0 °F 24.2 °F 26.6 °F 80% 30.23 in 10.0 mi WSW 9.2 mph - N/A   Scattered Clouds
11:15 PM 33.8 °F 25.8 °F 28.4 °F 81% 30.23 in 10.0 mi WSW 10.4 mph - N/A   Scattered Clouds
11:35 PM 33.8 °F 23.9 °F 28.4 °F 81% 30.23 in 10.0 mi WSW 15.0 mph - N/A   Scattered Clouds
11:55 PM 33.8 °F 24.3 °F 28.4 °F 81% 30.24 in 10.0 mi WSW 13.8 mph - N/A   Scattered Clouds